Change the Weather History Date:

Thursday, November 7, 2013

  Actual Average (KOVE) Record (KOVE)
Temperature  
Mean Temperature 60 °F -  
Max Temperature 71 °F 67 °F 84 °F (1955)
Min Temperature 48 °F 46 °F 33 °F (1989)
Degree Days  
Heating Degree Days 6    
Growing Degree Days 10 (Base 50)    
Moisture  
Dew Point 34 °F    
Average Humidity 43    
Maximum Humidity 66    
Minimum Humidity 27    
Precipitation  
Precipitation 0.00 in - - ()
Sea Level Pressure  
Sea Level Pressure 30.12 in    
Wind  
Wind Speed 2 mph (East)    
Max Wind Speed 12 mph    
Max Gust Speed -    
Visibility 10 miles    
Events      
Averages and records for this station are not official NWS values.
T = Trace of Precipitation, MM = Missing Value Source: NWS Daily Summary

Daily Weather History Graph

Daily Weather History Graph

Search for Another Location

Airport or City:

Trip Planner

Search our weather history database for the weather conditions in past years. The results will help you decide how hot, cold, wet, or windy it might be!

Date:

Astronomy

Nov. 07, 2013 Rise Set
Actual Time 6:43 AM PST 4:58 PM PST
Civil Twilight 6:14 AM PST 5:26 PM PST
Nautical Twilight 5:42 AM PST 5:59 PM PST
Astronomical Twilight 5:11 AM PST 6:30 PM PST
Moon 10:56 AM PST (11/7) 9:16 PM PST (11/7)
Length of Visible Light 11h 11m
Length of Day
10h 15m
Waxing Crescent, 24% of the Moon is Illuminated
Nov 7
Waxing Crescent
Nov 9
First Quarter
Nov 17
Full
Nov 25
Last Quarter
Dec 2
New

Hourly Weather History & Observations

Time (PST) Temp. Dew Point Humidity Pressure Visibility Wind Dir Wind Speed Gust Speed Precip Events Conditions
12:15 AM 57.2 °F 35.6 °F 44% 30.19 in 10.0 mi Calm Calm - N/A   Mostly Cloudy
12:35 AM 57.2 °F 35.6 °F 44% 30.19 in 10.0 mi Calm Calm - N/A   Scattered Clouds
12:55 AM 57.2 °F 37.4 °F 48% 30.18 in 10.0 mi Calm Calm - N/A   Partly Cloudy
1:15 AM 57.2 °F 37.4 °F 48% 30.18 in 10.0 mi Calm Calm - N/A   Clear
1:35 AM 55.4 °F 35.6 °F 47% 30.18 in 10.0 mi Calm Calm - N/A   Clear
1:55 AM 53.6 °F 35.6 °F 51% 30.17 in 10.0 mi Calm Calm - N/A   Partly Cloudy
2:15 AM 53.6 °F 37.4 °F 54% 30.17 in 10.0 mi Calm Calm - N/A   Partly Cloudy
2:35 AM 55.4 °F 37.4 °F 51% 30.16 in 10.0 mi Calm Calm - N/A   Partly Cloudy
2:55 AM 53.6 °F 35.6 °F 51% 30.16 in 10.0 mi Calm Calm - N/A   Scattered Clouds
3:15 AM 53.6 °F 35.6 °F 51% 30.17 in 10.0 mi Calm Calm - N/A   Mostly Cloudy
3:35 AM 51.8 °F 35.6 °F 54% 30.17 in 10.0 mi Calm Calm - N/A   Overcast
3:55 AM 51.8 °F 35.6 °F 54% 30.16 in 10.0 mi Calm Calm - N/A   Overcast
4:15 AM 53.6 °F 35.6 °F 51% 30.15 in 10.0 mi East 4.6 mph - N/A   Mostly Cloudy
4:35 AM 53.6 °F 35.6 °F 51% 30.15 in 10.0 mi Calm Calm - N/A   Partly Cloudy
4:55 AM 51.8 °F 35.6 °F 54% 30.14 in 10.0 mi Calm Calm - N/A   Clear
5:15 AM 51.8 °F 35.6 °F 54% 30.14 in 10.0 mi West 3.5 mph - N/A   Clear
5:35 AM 48.2 °F 37.4 °F 66% 30.15 in 10.0 mi WNW 5.8 mph - N/A   Clear
5:55 AM 51.8 °F 35.6 °F 54% 30.15 in 10.0 mi Calm Calm - N/A   Clear
6:15 AM 50.0 °F 35.6 °F 58% 30.16 in 10.0 mi Calm Calm - N/A   Clear
6:35 AM 50.0 °F 35.6 °F 58% 30.16 in 10.0 mi Calm Calm - N/A   Clear
6:50 AM 51.8 °F 35.6 °F 54% 30.16 in 10.0 mi Calm Calm - N/A   Mostly Cloudy
7:59 AM 53.6 °F 35.6 °F 51% 30.17 in 25.0 mi Calm Calm - N/A   Mostly Cloudy
8:59 AM 62.6 °F 35.6 °F 37% 30.17 in 25.0 mi SSE 4.6 mph - N/A   Mostly Cloudy
9:52 AM 66.2 °F 35.6 °F 32% 30.16 in 25.0 mi South 9.2 mph - N/A   Mostly Cloudy
10:50 AM 68.0 °F 37.4 °F 33% 30.15 in 25.0 mi South 6.9 mph - N/A   Mostly Cloudy
11:50 AM 69.8 °F 37.4 °F 31% 30.12 in 25.0 mi South 9.2 mph - N/A   Mostly Cloudy
1:53 PM 71.6 °F 35.6 °F 27% 30.08 in 25.0 mi SE 11.5 mph - N/A   Mostly Cloudy
2:58 PM 71.6 °F 35.6 °F 27% 30.06 in 25.0 mi SE 8.1 mph - N/A   Mostly Cloudy
3:55 PM 71.6 °F 35.6 °F 27% 30.05 in 25.0 mi SE 6.9 mph - N/A   Mostly Cloudy
6:52 PM 62.6 °F 32.0 °F 32% 30.06 in 10.0 mi NNE 6.9 mph - N/A   Mostly Cloudy
6:55 PM 62.6 °F 32.0 °F 32% 30.07 in 10.0 mi NNE 4.6 mph - N/A   Clear
7:15 PM 60.8 °F 32.0 °F 34% 30.07 in 10.0 mi Calm Calm - N/A   Clear
7:35 PM 60.8 °F 32.0 °F 34% 30.06 in 10.0 mi Calm Calm - N/A   Mostly Cloudy
7:55 PM 59.0 °F 32.0 °F 36% 30.06 in 10.0 mi Calm Calm - N/A   Mostly Cloudy
8:15 PM 59.0 °F 30.2 °F 34% 30.07 in 10.0 mi Calm Calm - N/A   Scattered Clouds
8:35 PM 59.0 °F 30.2 °F 34% 30.07 in 10.0 mi Calm Calm - N/A   Clear
8:55 PM 59.0 °F 30.2 °F 34% 30.07 in 10.0 mi NNE 5.8 mph - N/A   Clear
9:15 PM 59.0 °F 30.2 °F 34% 30.08 in 10.0 mi NE 8.1 mph - N/A   Clear
9:35 PM 59.0 °F 30.2 °F 34% 30.08 in 10.0 mi ENE 5.8 mph - N/A   Clear
9:55 PM 57.2 °F 32.0 °F 38% 30.08 in 10.0 mi Calm Calm - N/A   Clear
10:15 PM 57.2 °F 30.2 °F 36% 30.08 in 10.0 mi Calm Calm - N/A   Clear
10:35 PM 53.6 °F 30.2 °F 41% 30.08 in 10.0 mi Calm Calm - N/A   Clear
10:55 PM 57.2 °F 30.2 °F 36% 30.08 in 10.0 mi Calm Calm - N/A   Clear
11:15 PM 55.4 °F 30.2 °F 38% 30.08 in 10.0 mi Calm Calm - N/A   Partly Cloudy
11:35 PM 53.6 °F 32.0 °F 44% 30.09 in 10.0 mi Calm Calm - N/A   Clear
11:55 PM 53.6 °F 32.0 °F 44% 30.09 in 10.0 mi North 3.5 mph - N/A   Clear